| time (UTC) | temp C | wind direction | speed KPH | gust KPH | rain 1hr cm | rain 24hr cm | rain mn cm | humidity % | barometer mb |
| 20260502233744 | 11 | 312 | 0.0 | 0.0 | 0.00 | 0.00 | 0.00 | 48 | 1014.4 |
| 20260502233241 | 11 | 274 | 1.6 | 3.2 | 0.00 | 0.00 | 0.00 | 47 | 1014.4 |
| 20260502232737 | 11 | 13 | 3.2 | 3.2 | 0.00 | 0.00 | 0.00 | 47 | 1014.1 |
| 20260502232234 | 11 | 287 | 1.6 | 3.2 | 0.00 | 0.00 | 0.00 | 47 | 1014.1 |
| 20260502231731 | 11 | 10 | 3.2 | 3.2 | 0.00 | 0.00 | 0.00 | 47 | 1014.3 |
| 20260502231229 | 11 | 8 | 1.6 | 3.2 | 0.00 | 0.00 | 0.00 | 49 | 1014.1 |
| 20260502230727 | 11 | 6 | 1.6 | 3.2 | 0.00 | 0.00 | 0.00 | 47 | 1014.1 |
| 20260502230225 | 11 | 84 | 3.2 | 3.2 | 0.00 | 0.00 | 0.00 | 47 | 1014.1 |
| 20260502225721 | 11 | 81 | 4.8 | 4.8 | 0.00 | 0.00 | 0.00 | 47 | 1013.8 |
| 20260502225218 | 11 | 213 | 3.2 | 3.2 | 0.00 | 0.00 | 0.00 | 47 | 1013.9 |
| 20260502224714 | 11 | 349 | 6.4 | 11.3 | 0.00 | 0.00 | 0.00 | 45 | 1013.9 |
| 20260502224211 | 11 | 77 | 4.8 | 4.8 | 0.00 | 0.00 | 0.00 | 44 | 1013.8 |
| 20260502223709 | 12 | 145 | 4.8 | 8.0 | 0.00 | 0.00 | 0.00 | 46 | 1013.9 |
| 20260502223207 | 12 | 196 | 4.8 | 9.7 | 0.00 | 0.00 | 0.00 | 46 | 1013.8 |
| 20260502222704 | 12 | 179 | 6.4 | 9.7 | 0.00 | 0.00 | 0.00 | 48 | 1013.9 |
| 20260502222201 | 12 | 24 | 1.6 | 3.2 | 0.00 | 0.00 | 0.00 | 50 | 1013.9 |
| 20260502221656 | 12 | 99 | 4.8 | 4.8 | 0.00 | 0.00 | 0.00 | 46 | 1013.8 |
| 20260502221153 | 12 | 314 | 0.0 | 1.6 | 0.00 | 0.00 | 0.00 | 47 | 1013.8 |
| 20260502220649 | 12 | 299 | 1.6 | 1.6 | 0.00 | 0.00 | 0.00 | 47 | 1013.6 |
| 20260502220146 | 12 | 60 | 1.6 | 3.2 | 0.00 | 0.00 | 0.00 | 45 | 1013.7 |
| 20260502215643 | 12 | 17 | 1.6 | 1.6 | 0.00 | 0.00 | 0.00 | 46 | 1013.8 |
| 20260502215140 | 12 | 86 | 4.8 | 8.0 | 0.00 | 0.00 | 0.00 | 45 | 1013.8 |
| 20260502214637 | 12 | 312 | 4.8 | 9.7 | 0.00 | 0.00 | 0.00 | 44 | 1013.7 |
| 20260502214134 | 13 | 298 | 1.6 | 1.6 | 0.00 | 0.00 | 0.00 | 43 | 1013.6 |
| 20260502213631 | 14 | 286 | 3.2 | 4.8 | 0.00 | 0.00 | 0.00 | 42 | 1013.5 |
| 20260502213128 | 13 | 292 | 1.6 | 3.2 | 0.00 | 0.00 | 0.00 | 42 | 1013.6 |
| 20260502212628 | 13 | 229 | 8.0 | 11.3 | 0.00 | 0.00 | 0.00 | 44 | 1013.7 |
| 20260502212125 | 12 | 299 | 3.2 | 4.8 | 0.00 | 0.00 | 0.00 | 45 | 1013.6 |
| 20260502211620 | 12 | 357 | 1.6 | 1.6 | 0.00 | 0.00 | 0.00 | 45 | 1013.4 |
| 20260502211118 | 12 | 336 | 4.8 | 8.0 | 0.00 | 0.00 | 0.00 | 45 | 1013.7 |
| 20260502210615 | 12 | 336 | 1.6 | 1.6 | 0.00 | 0.00 | 0.00 | 47 | 1013.7 |
| 20260502210112 | 12 | 16 | 3.2 | 4.8 | 0.00 | 0.00 | 0.00 | 46 | 1013.4 |
| 20260502205609 | 12 | 242 | 3.2 | 4.8 | 0.00 | 0.00 | 0.00 | 50 | 1013.6 |
| 20260502205106 | 12 | 320 | 1.6 | 1.6 | 0.00 | 0.00 | 0.00 | 48 | 1013.3 |
| 20260502204602 | 12 | 236 | 4.8 | 9.7 | 0.00 | 0.00 | 0.00 | 46 | 1013.5 |
| 20260502204100 | 12 | 90 | 4.8 | 4.8 | 0.00 | 0.00 | 0.00 | 45 | 1013.5 |
| 20260502203557 | 12 | 151 | 6.4 | 8.0 | 0.00 | 0.00 | 0.00 | 44 | 1013.6 |
| 20260502203054 | 12 | 54 | 4.8 | 4.8 | 0.00 | 0.00 | 0.00 | 45 | 1013.5 |
| 20260502202550 | 13 | 218 | 6.4 | 8.0 | 0.00 | 0.00 | 0.00 | 43 | 1013.5 |
| 20260502202048 | 13 | 285 | 9.7 | 11.3 | 0.00 | 0.00 | 0.00 | 43 | 1013.7 |
| 20260502201544 | 13 | 148 | 3.2 | 4.8 | 0.00 | 0.00 | 0.00 | 43 | 1013.8 |
| 20260502201041 | 12 | 137 | 4.8 | 4.8 | 0.00 | 0.00 | 0.00 | 46 | 1013.8 |
| 20260502200536 | 12 | 346 | 1.6 | 3.2 | 0.00 | 0.00 | 0.00 | 45 | 1013.9 |
| 20260502200035 | 12 | 93 | 3.2 | 4.8 | 0.00 | 0.00 | 0.00 | 44 | 1014.0 |
| 20260502195532 | 12 | 272 | 3.2 | 3.2 | 0.00 | 0.00 | 0.00 | 48 | 1014.0 |
| 20260502195028 | 12 | 320 | 0.0 | 0.0 | 0.00 | 0.00 | 0.00 | 46 | 1013.9 |
| 20260502194525 | 12 | 228 | 3.2 | 3.2 | 0.00 | 0.00 | 0.00 | 47 | 1013.9 |
| 20260502194021 | 12 | 21 | 4.8 | 4.8 | 0.00 | 0.00 | 0.00 | 45 | 1013.9 |
| 20260502193518 | 12 | 83 | 6.4 | 9.7 | 0.00 | 0.00 | 0.00 | 43 | 1014.1 |
| 20260502193015 | 13 | 141 | 3.2 | 4.8 | 0.00 | 0.00 | 0.00 | 45 | 1013.9 |
| 20260502192510 | 13 | 324 | 1.6 | 1.6 | 0.00 | 0.00 | 0.00 | 49 | 1014.2 |
| 20260502192008 | 11 | 259 | 3.2 | 3.2 | 0.00 | 0.00 | 0.00 | 47 | 1014.2 |
| 20260502191505 | 11 | 47 | 3.2 | 3.2 | 0.00 | 0.00 | 0.00 | 48 | 1014.3 |
| 20260502191003 | 12 | 64 | 3.2 | 3.2 | 0.00 | 0.00 | 0.00 | 47 | 1014.4 |
| 20260502190500 | 11 | 233 | 4.8 | 4.8 | 0.00 | 0.00 | 0.00 | 45 | 1014.2 |
| 20260502185956 | 12 | 131 | 6.4 | 8.0 | 0.00 | 0.00 | 0.00 | 46 | 1014.3 |
| 20260502185452 | 12 | 328 | 0.0 | 1.6 | 0.00 | 0.00 | 0.00 | 49 | 1014.2 |
| 20260502184949 | 12 | 100 | 11.3 | 12.9 | 0.00 | 0.00 | 0.00 | 46 | 1014.5 |
| 20260502184444 | 13 | 213 | 12.9 | 14.5 | 0.00 | 0.00 | 0.00 | 45 | 1014.3 |
| 20260502183941 | 13 | 304 | 3.2 | 3.2 | 0.00 | 0.00 | 0.00 | 47 | 1014.5 |
| 20260502183437 | 12 | 24 | 3.2 | 3.2 | 0.00 | 0.00 | 0.00 | 43 | 1014.5 |
| 20260502182932 | 12 | 283 | 1.6 | 3.2 | 0.00 | 0.00 | 0.00 | 46 | 1014.7 |
| 20260502182428 | 12 | 16 | 1.6 | 3.2 | 0.00 | 0.00 | 0.00 | 49 | 1014.5 |
| 20260502181924 | 12 | 280 | 6.4 | 8.0 | 0.00 | 0.00 | 0.00 | 46 | 1014.8 |
| 20260502181423 | 12 | 53 | 3.2 | 3.2 | 0.00 | 0.00 | 0.00 | 45 | 1014.5 |
| 20260502180921 | 12 | 69 | 6.4 | 9.7 | 0.00 | 0.00 | 0.00 | 47 | 1014.5 |
| 20260502180418 | 12 | 280 | 6.4 | 8.0 | 0.00 | 0.00 | 0.00 | 45 | 1014.6 |
| 20260502170336 | 11 | 146 | 6.4 | 9.7 | 0.00 | 0.00 | 0.00 | 49 | 1015.1 |
| 20260502164324 | 12 | 50 | 6.4 | 11.3 | 0.00 | 0.00 | 0.00 | 49 | 1015.0 |
| 20260502163820 | 11 | 344 | 1.6 | 3.2 | 0.00 | 0.00 | 0.00 | 46 | 1015.3 |
| 20260502163316 | 11 | 64 | 4.8 | 4.8 | 0.00 | 0.00 | 0.00 | 48 | 1015.3 |
| 20260502162814 | 12 | 14 | 1.6 | 3.2 | 0.00 | 0.00 | 0.00 | 47 | 1015.1 |
| 20260502162311 | 11 | 342 | 1.6 | 1.6 | 0.00 | 0.00 | 0.00 | 47 | 1014.9 |
| 20260502161808 | 12 | 125 | 6.4 | 8.0 | 0.00 | 0.00 | 0.00 | 46 | 1015.4 |
| 20260502161303 | 12 | 256 | 0.0 | 1.6 | 0.00 | 0.00 | 0.00 | 45 | 1015.5 |
| 20260502160802 | 11 | 304 | 3.2 | 3.2 | 0.00 | 0.00 | 0.00 | 49 | 1015.5 |
| 20260502160301 | 11 | 328 | 0.0 | 1.6 | 0.00 | 0.00 | 0.00 | 50 | 1015.1 |
| 20260502152229 | 12 | 238 | 3.2 | 4.8 | 0.00 | 0.00 | 0.00 | 50 | 1015.6 |
| 20260502151727 | 12 | 288 | 4.8 | 4.8 | 0.00 | 0.00 | 0.00 | 54 | 1015.7 |
| 20260502151224 | 11 | 323 | 4.8 | 8.0 | 0.00 | 0.00 | 0.00 | 51 | 1015.5 |
| 20260502150722 | 12 | 220 | 3.2 | 3.2 | 0.00 | 0.00 | 0.00 | 55 | 1015.6 |
| 20260502150218 | 12 | 288 | 3.2 | 4.8 | 0.00 | 0.00 | 0.00 | 53 | 1015.9 |
| 20260502130607 | 6 | 332 | 0.0 | 0.0 | 0.00 | 0.00 | 0.00 | 99 | 1015.9 |
| 20260502130105 | 6 | 334 | 0.0 | 0.0 | 0.00 | 0.00 | 0.00 | 99 | 1015.8 |
| 20260502123550 | 3 | 358 | 0.0 | 0.0 | 0.00 | 0.00 | 0.00 | 99 | 1015.9 |
| 20260502123046 | 3 | 334 | 0.0 | 0.0 | 0.00 | 0.00 | 0.00 | 99 | 1015.7 |
| 20260502122543 | 3 | 307 | 0.0 | 0.0 | 0.00 | 0.00 | 0.00 | 99 | 1015.7 |
| 20260502122040 | 3 | 332 | 0.0 | 0.0 | 0.00 | 0.00 | 0.00 | 99 | 1015.8 |
| 20260502121537 | 3 | 334 | 0.0 | 0.0 | 0.00 | 0.00 | 0.00 | 99 | 1015.7 |
| 20260502121035 | 2 | 335 | 0.0 | 0.0 | 0.00 | 0.00 | 0.00 | 99 | 1015.9 |
| 20260502120531 | 2 | 339 | 0.0 | 0.0 | 0.00 | 0.00 | 0.00 | 99 | 1015.8 |
| 20260502115526 | 2 | 314 | 0.0 | 0.0 | 0.00 | 0.00 | 0.00 | 99 | 1015.6 |
| 20260502115021 | 2 | 299 | 0.0 | 0.0 | 0.00 | 0.00 | 0.00 | 99 | 1015.8 |
| 20260502114518 | 1 | 336 | 0.0 | 0.0 | 0.00 | 0.00 | 0.00 | 99 | 1015.9 |
| 20260502114015 | 1 | 336 | 0.0 | 0.0 | 0.00 | 0.00 | 0.00 | 99 | 1015.6 |
| 20260502113513 | 1 | 336 | 0.0 | 0.0 | 0.00 | 0.00 | 0.00 | 99 | 1015.6 |
| 20260502113012 | 1 | 336 | 0.0 | 0.0 | 0.00 | 0.00 | 0.00 | 99 | 1015.7 |
| 20260502112509 | 1 | 336 | 0.0 | 0.0 | 0.00 | 0.00 | 0.00 | 99 | 1015.4 |
| 20260502112006 | 1 | 336 | 0.0 | 0.0 | 0.00 | 0.00 | 0.00 | 99 | 1015.5 |
| 20260502111503 | 1 | 336 | 0.0 | 0.0 | 0.00 | 0.00 | 0.00 | 99 | 1015.4 |
| 20260502111001 | 1 | 336 | 0.0 | 0.0 | 0.00 | 0.00 | 0.00 | 99 | 1015.4 |
| 20260502110458 | 1 | 337 | 1.6 | 1.6 | 0.00 | 0.00 | 0.00 | 99 | 1015.4 |
| 20260502105955 | 1 | 336 | 1.6 | 3.2 | 0.00 | 0.00 | 0.00 | 99 | 1015.3 |
| 20260502105453 | 1 | 335 | 0.0 | 0.0 | 0.00 | 0.00 | 0.00 | 99 | 1015.3 |
| 20260502104950 | 1 | 334 | 0.0 | 0.0 | 0.00 | 0.00 | 0.00 | 99 | 1015.5 |
| 20260502104447 | 1 | 334 | 0.0 | 0.0 | 0.00 | 0.00 | 0.00 | 99 | 1015.4 |
| 20260502103945 | 1 | 334 | 0.0 | 0.0 | 0.00 | 0.00 | 0.00 | 99 | 1015.3 |
| 20260502103442 | 1 | 334 | 0.0 | 0.0 | 0.00 | 0.00 | 0.00 | 99 | 1015.6 |
| 20260502102939 | 1 | 337 | 1.6 | 1.6 | 0.00 | 0.00 | 0.00 | 99 | 1015.1 |
| 20260502102436 | 1 | 334 | 1.6 | 1.6 | 0.00 | 0.00 | 0.00 | 99 | 1015.3 |
| 20260502101933 | 1 | 329 | 0.0 | 0.0 | 0.00 | 0.00 | 0.00 | 99 | 1015.0 |
| 20260502101431 | 1 | 329 | 0.0 | 0.0 | 0.00 | 0.00 | 0.00 | 99 | 1015.5 |
| 20260502100929 | 1 | 329 | 0.0 | 0.0 | 0.00 | 0.00 | 0.00 | 99 | 1015.5 |
| 20260502100428 | 1 | 329 | 0.0 | 0.0 | 0.00 | 0.00 | 0.00 | 99 | 1015.9 |
| 20260502091402 | 1 | 325 | 0.0 | 0.0 | 0.00 | 0.00 | 0.00 | 99 | 1015.4 |
| 20260502090859 | 1 | 327 | 0.0 | 0.0 | 0.00 | 0.00 | 0.00 | 99 | 1015.4 |
| 20260502090356 | 1 | 323 | 0.0 | 0.0 | 0.00 | 0.00 | 0.00 | 99 | 1015.8 |
| 20260502071251 | 1 | 337 | 1.6 | 3.2 | 0.00 | 0.00 | 0.00 | 99 | 1015.4 |
| 20260502070749 | 2 | 344 | 1.6 | 1.6 | 0.00 | 0.00 | 0.00 | 99 | 1015.1 |
| 20260502070246 | 2 | 340 | 1.6 | 1.6 | 0.00 | 0.00 | 0.00 | 99 | 1015.4 |
| 20260502065745 | 2 | 340 | 1.6 | 1.6 | 0.00 | 0.00 | 0.00 | 99 | 1015.3 |
| 20260502065242 | 2 | 338 | 1.6 | 1.6 | 0.00 | 0.00 | 0.00 | 99 | 1015.5 |
| 20260502064741 | 2 | 337 | 1.6 | 3.2 | 0.00 | 0.00 | 0.00 | 99 | 1015.7 |
| 20260502064238 | 2 | 343 | 3.2 | 3.2 | 0.00 | 0.00 | 0.00 | 99 | 1015.6 |
| 20260502063735 | 2 | 341 | 1.6 | 1.6 | 0.00 | 0.00 | 0.00 | 99 | 1015.4 |
| 20260502063233 | 2 | 338 | 1.6 | 3.2 | 0.00 | 0.00 | 0.00 | 99 | 1015.5 |
| 20260502062730 | 2 | 337 | 1.6 | 3.2 | 0.00 | 0.00 | 0.00 | 99 | 1015.6 |
| 20260502062228 | 2 | 338 | 1.6 | 1.6 | 0.00 | 0.00 | 0.00 | 99 | 1015.3 |
| 20260502061726 | 2 | 330 | 1.6 | 1.6 | 0.00 | 0.00 | 0.00 | 99 | 1015.5 |
| 20260502061223 | 2 | 327 | 0.0 | 0.0 | 0.00 | 0.00 | 0.00 | 99 | 1015.4 |
| 20260502060718 | 2 | 327 | 0.0 | 0.0 | 0.00 | 0.00 | 0.00 | 99 | 1015.8 |
| 20260502060215 | 2 | 330 | 0.0 | 1.6 | 0.00 | 0.00 | 0.00 | 99 | 1015.8 |
| 20260502055713 | 2 | 340 | 1.6 | 1.6 | 0.00 | 0.00 | 0.00 | 99 | 1015.8 |
| 20260502055210 | 2 | 337 | 1.6 | 1.6 | 0.00 | 0.00 | 0.00 | 99 | 1015.7 |
| 20260502054709 | 2 | 344 | 1.6 | 1.6 | 0.00 | 0.00 | 0.00 | 99 | 1015.6 |
| 20260502054206 | 2 | 341 | 3.2 | 3.2 | 0.00 | 0.00 | 0.00 | 99 | 1015.7 |
| 20260502053704 | 2 | 337 | 1.6 | 3.2 | 0.00 | 0.00 | 0.00 | 99 | 1015.8 |
| 20260502053200 | 2 | 335 | 1.6 | 1.6 | 0.00 | 0.00 | 0.00 | 99 | 1016.0 |
| 20260502052659 | 2 | 331 | 0.0 | 1.6 | 0.00 | 0.00 | 0.00 | 99 | 1015.9 |
| 20260502052157 | 2 | 332 | 0.0 | 0.0 | 0.00 | 0.00 | 0.00 | 99 | 1015.9 |
| 20260502051655 | 3 | 332 | 0.0 | 0.0 | 0.00 | 0.00 | 0.00 | 99 | 1015.9 |
| 20260502051152 | 3 | 332 | 0.0 | 0.0 | 0.00 | 0.00 | 0.00 | 99 | 1015.8 |
| 20260502050649 | 3 | 332 | 0.0 | 1.6 | 0.00 | 0.00 | 0.00 | 99 | 1015.9 |
| 20260502050145 | 3 | 332 | 0.0 | 0.0 | 0.00 | 0.00 | 0.00 | 99 | 1016.0 |
| 20260502045642 | 3 | 336 | 1.6 | 1.6 | 0.00 | 0.00 | 0.00 | 99 | 1015.8 |
| 20260502045139 | 3 | 337 | 1.6 | 1.6 | 0.00 | 0.00 | 0.00 | 99 | 1015.7 |
| 20260502044636 | 3 | 339 | 1.6 | 1.6 | 0.00 | 0.00 | 0.00 | 99 | 1016.0 |
| 20260502044132 | 3 | 336 | 1.6 | 1.6 | 0.00 | 0.00 | 0.00 | 99 | 1016.0 |
| 20260502043630 | 3 | 338 | 1.6 | 3.2 | 0.00 | 0.00 | 0.00 | 99 | 1016.0 |
| 20260502043127 | 3 | 343 | 1.6 | 3.2 | 0.00 | 0.00 | 0.00 | 99 | 1016.0 |
| 20260502042626 | 3 | 359 | 4.8 | 4.8 | 0.00 | 0.00 | 0.00 | 99 | 1016.1 |
| 20260502042124 | 3 | 337 | 3.2 | 3.2 | 0.00 | 0.00 | 0.00 | 99 | 1016.1 |
| 20260502041622 | 4 | 338 | 3.2 | 3.2 | 0.00 | 0.00 | 0.00 | 99 | 1016.1 |
| 20260502041119 | 4 | 341 | 3.2 | 3.2 | 0.00 | 0.00 | 0.00 | 99 | 1016.0 |
| 20260502040615 | 4 | 337 | 1.6 | 1.6 | 0.00 | 0.00 | 0.00 | 99 | 1016.0 |
| 20260502040113 | 4 | 338 | 1.6 | 1.6 | 0.00 | 0.00 | 0.00 | 99 | 1016.1 |
| 20260502035609 | 5 | 341 | 3.2 | 3.2 | 0.00 | 0.00 | 0.00 | 99 | 1015.8 |
| 20260502035106 | 5 | 343 | 1.6 | 3.2 | 0.00 | 0.00 | 0.00 | 98 | 1016.0 |
| 20260502034604 | 5 | 336 | 1.6 | 1.6 | 0.00 | 0.00 | 0.00 | 98 | 1016.0 |
| 20260502034102 | 5 | 335 | 1.6 | 1.6 | 0.00 | 0.00 | 0.00 | 97 | 1015.8 |
| 20260502033600 | 5 | 334 | 1.6 | 1.6 | 0.00 | 0.00 | 0.00 | 97 | 1015.7 |
| 20260502033057 | 5 | 335 | 1.6 | 1.6 | 0.00 | 0.00 | 0.00 | 96 | 1015.7 |
| 20260502032552 | 5 | 336 | 1.6 | 1.6 | 0.00 | 0.00 | 0.00 | 95 | 1015.8 |
| 20260502032049 | 5 | 338 | 1.6 | 1.6 | 0.00 | 0.00 | 0.00 | 95 | 1015.9 |
| 20260502031547 | 6 | 341 | 1.6 | 3.2 | 0.00 | 0.00 | 0.00 | 94 | 1015.7 |
| 20260502031044 | 6 | 343 | 3.2 | 3.2 | 0.00 | 0.00 | 0.00 | 93 | 1015.9 |
| 20260502030544 | 6 | 342 | 1.6 | 1.6 | 0.00 | 0.00 | 0.00 | 93 | 1015.8 |
| 20260502030041 | 6 | 342 | 3.2 | 3.2 | 0.00 | 0.00 | 0.00 | 92 | 1015.6 |
| 20260502025538 | 6 | 337 | 1.6 | 1.6 | 0.00 | 0.00 | 0.00 | 91 | 1015.7 |
| 20260502025036 | 6 | 341 | 3.2 | 3.2 | 0.00 | 0.00 | 0.00 | 90 | 1015.9 |
| 20260502024533 | 6 | 329 | 1.6 | 1.6 | 0.00 | 0.00 | 0.00 | 89 | 1015.7 |
| 20260502024032 | 7 | 326 | 0.0 | 0.0 | 0.00 | 0.00 | 0.00 | 89 | 1015.9 |
| 20260502023529 | 7 | 326 | 0.0 | 0.0 | 0.00 | 0.00 | 0.00 | 88 | 1016.1 |
| 20260502023026 | 7 | 327 | 0.0 | 0.0 | 0.00 | 0.00 | 0.00 | 88 | 1016.1 |
| 20260502022523 | 7 | 326 | 0.0 | 0.0 | 0.00 | 0.00 | 0.00 | 87 | 1016.1 |
| 20260502022020 | 7 | 325 | 0.0 | 0.0 | 0.00 | 0.00 | 0.00 | 86 | 1016.0 |
| 20260502021517 | 7 | 325 | 0.0 | 0.0 | 0.00 | 0.00 | 0.00 | 86 | 1015.6 |
| 20260502021014 | 7 | 325 | 0.0 | 0.0 | 0.00 | 0.00 | 0.00 | 84 | 1015.6 |
| 20260502020512 | 7 | 325 | 0.0 | 0.0 | 0.00 | 0.00 | 0.00 | 84 | 1015.4 |
| 20260502020009 | 7 | 326 | 0.0 | 0.0 | 0.00 | 0.00 | 0.00 | 83 | 1015.5 |
| 20260502015507 | 7 | 325 | 0.0 | 1.6 | 0.00 | 0.00 | 0.00 | 82 | 1015.1 |
| 20260502015003 | 7 | 325 | 0.0 | 0.0 | 0.00 | 0.00 | 0.00 | 80 | 1015.1 |
| 20260502014459 | 8 | 325 | 0.0 | 0.0 | 0.00 | 0.00 | 0.00 | 79 | 1015.0 |
| 20260502013956 | 8 | 324 | 0.0 | 0.0 | 0.00 | 0.00 | 0.00 | 76 | 1014.8 |
| 20260502013452 | 9 | 334 | 1.6 | 1.6 | 0.00 | 0.00 | 0.00 | 71 | 1014.8 |
| 20260502012948 | 9 | 339 | 1.6 | 1.6 | 0.00 | 0.00 | 0.00 | 71 | 1014.7 |
| 20260502012446 | 9 | 345 | 1.6 | 1.6 | 0.00 | 0.00 | 0.00 | 71 | 1014.6 |
| 20260502011944 | 9 | 7 | 1.6 | 3.2 | 0.00 | 0.00 | 0.00 | 70 | 1014.5 |
| 20260502011439 | 9 | 304 | 1.6 | 1.6 | 0.00 | 0.00 | 0.00 | 70 | 1014.6 |
| 20260502010936 | 10 | 343 | 0.0 | 0.0 | 0.00 | 0.00 | 0.00 | 69 | 1014.3 |
| 20260502010433 | 10 | 320 | 4.8 | 4.8 | 0.00 | 0.00 | 0.00 | 69 | 1014.4 |
| 20260502005929 | 10 | 347 | 3.2 | 3.2 | 0.00 | 0.00 | 0.00 | 69 | 1014.1 |
| 20260502005427 | 10 | 348 | 1.6 | 3.2 | 0.00 | 0.00 | 0.00 | 69 | 1014.1 |
| 20260502004925 | 10 | 314 | 4.8 | 4.8 | 0.00 | 0.00 | 0.00 | 69 | 1014.2 |
| 20260502004421 | 10 | 185 | 6.4 | 9.7 | 0.00 | 0.00 | 0.00 | 69 | 1013.9 |
| 20260502003918 | 10 | 39 | 4.8 | 8.0 | 0.00 | 0.00 | 0.00 | 69 | 1013.5 |
| 20260502003416 | 11 | 299 | 4.8 | 4.8 | 0.00 | 0.00 | 0.00 | 69 | 1013.5 |
| 20260502002911 | 11 | 29 | 4.8 | 9.7 | 0.00 | 0.00 | 0.00 | 68 | 1013.4 |
| 20260502002409 | 11 | 195 | 8.0 | 11.3 | 0.00 | 0.00 | 0.00 | 70 | 1013.3 |
| 20260502001906 | 11 | 341 | 3.2 | 4.8 | 0.00 | 0.00 | 0.00 | 70 | 1013.1 |
| 20260502001404 | 11 | 231 | 6.4 | 9.7 | 0.00 | 0.00 | 0.00 | 70 | 1013.2 |
| 20260502000901 | 11 | 333 | 0.0 | 1.6 | 0.00 | 0.00 | 0.00 | 70 | 1013.1 |
| 20260502000402 | 11 | 353 | 3.2 | 4.8 | 0.00 | 0.00 | 0.00 | 71 | 1013.1 |
| 20260501235855 | 12 | 346 | 4.8 | 4.8 | 0.00 | 0.00 | 0.00 | 70 | 1012.7 |
| 20260501235351 | 12 | 315 | 0.0 | 1.6 | 0.00 | 0.00 | 0.00 | 69 | 1012.7 |
| 20260501234846 | 12 | 353 | 8.0 | 11.3 | 0.00 | 0.00 | 0.00 | 68 | 1012.7 |
| 20260501234344 | 12 | 325 | 8.0 | 12.9 | 0.00 | 0.00 | 0.00 | 67 | 1012.4 |